User: anonymous   Login
Location: Clyde
(45.1830°S, 169.3170°E)
Time: 15:40:59
(UTC+12:00)
Language:

CZ-4B R/B - Orbit

View from above orbital plane
View from above orbital plane
View from above satellite
View from above satellite

Ground track
Ground track

The orbit data is extracted from the following two-line orbital elements,

1 27432U 02024C   21207.57400994 -.00000029  00000-0  86797-5 0  9990
2 27432  99.0840 222.6302 0051390 115.9142 355.5612 14.14111754990765
Epoch (UTC): 26 July 2021 13:46:34
Eccentricity: 0.0051390
inclination: 99.0840°
perigee height: 808 km
apogee height: 882 km
right ascension of ascending node: 222.6302°
argument of perigee: 115.9142°
revolutions per day: 14.14111754
mean anomaly at epoch: 355.5612°
orbit number at epoch: 99076

The dashed part of the orbit path shows where the satellite is in the earth's shadow,  

DLR